{"data":{"norad_id":48227,"epoch":"2026-09-20T00:41:53.918592Z","epoch_age_seconds":62600,"freshness":"FRESH","line1":"1 48227U 21031T   26263.02909628  .00000098  00000+0  23092-3 0  9990","line2":"2 48227  87.8905 270.7841 0002040  89.1311 271.0052 13.14501821260685","mean_motion":13.14501821,"eccentricity":0.000204,"inclination_deg":87.8905,"raan_deg":270.7841,"arg_perigee_deg":89.1311,"mean_anomaly_deg":271.0052,"bstar":0.00023092,"rev_number":26068,"period_min":109.54720465161,"perigee_km":1204.2469982101,"apogee_km":1207.3412421072,"semimajor_km":7583.9311201586,"source":"CELESTRAK","updated_at":"2026-09-20T09:00:44.595679Z"}}